Starlink 35898

operational
NORAD ID: 66826 Int'l Des: 2025-280 Owner: SPXS Country: US Constellation: starlink
LEOCIRCULAR

About Starlink 35898

Description loading...

Live Position

Loading 3D Globe...

Upcoming Passes

Altitude History

Altitude vs Time

uPlot chart will show altitude changes over time

Two-Line Element Set

1 66826U 25280F 26041.20930282 .00005499 00000-0 46825-3 0 9999
2 66826 70.0020 43.5815 0002824 263.9049 96.1789 14.98336424 11965
Epoch: Feb 10, 2026 • Age: 10 hours

Current Status

Altitude 573.9 km
Velocity 7.57 km/s
Sub-Earth Point 5.18°N, 151.3°W
Launch Date Dec 2, 2025
Age 0.1 years
Type internet

Technical Details

Classification Payload
Mass 575.00 kg
Dry Mass 530.00 kg
Total Mass 575.00 kg
Length 0.30 m
Diameter 4.10 m
Span 29.00 m
Shape Box + pan
Manufacturer SPXS
Bus Type Starlink V2MO
Phase Status In Orbit
Owner/State SPXS/US

Large Constellations

Loading constellations...